Find SMDC-ONE 3.1

NORAD ID: 39474 Int'l Des: 2013-072 Owner: SMDC Country: US operational
LEOCIRCULARRETROGRADE

Live Position

Loading 3D Globe...

About SMDC-ONE 3.1

Description loading...

Upcoming Passes

Passes for default location (London). Set your location on the main map for personalized predictions.

Altitude History

Loading altitude history...

Two-Line Element Set

1 39474U 13072N 26106.31510697 .00037470 00000-0 51308-3 0 9998
2 39474 120.4516 244.0245 0068342 344.2648 15.6321 15.54411354107934
Epoch: Apr 16, 2026 • Age: 22 hours

Current Status

Altitude 449.7 km
Velocity 7.62 km/s
Sub-Earth Point -2.31°S, 131.72°E
Launch Date Dec 6, 2013
Age 12.3 years
Type other

Technical Details

Classification Payload
Mass 4.00 kg
Dry Mass 4.00 kg
Total Mass 4.00 kg
Length 0.30 m
Diameter 0.10 m
Span 0.30 m
Shape Box
Manufacturer DUCOMM
Bus Type Cubesat 3U
Phase Status In Orbit
Owner/State SMDC/US

Most Searched